This demonstration page uses our WeatherBlox Daily Observations layout. Learn more.

Left ArrowRight Arrow

31.31129, -92.44514

Hourly Observations for August 9, 2016

Temp ( °F °C ) Dew Point ( °F °C ) Humidity (%) Winds ( mph kmh ) Pressure ( in mb ) Visibility ( mi km ) Precip ( " mm )
12:53 am 00:53 Clear 78 25.6 76 24.4 93 93 Calm 29.90 1013 10 16 0.00 0.00
1:53 am 01:53 Clear 76 24.4 75 23.9 97 97 Calm 29.88 1012 7 11 0.00 0.00
2:53 am 02:53 Clear 77 25 75 23.9 94 94 Calm 29.88 1012 8 13 0.00 0.00
3:53 am 03:53 Clear with Mist and Fog 76 24.4 75 23.9 97 97 Calm 29.89 1012 6 10 0.00 0.00
4:53 am 04:53 Clear with Mist and Fog 76 24.4 75 23.9 97 97 Calm 29.90 1012 6 10 0.00 0.00
5:53 am 05:53 Clear with Mist and Fog 75 23.9 75 23.9 100 100 Calm 29.90 1013 6 10 0.00 0.00
6:53 am 06:53 Sunny 75 23.9 75 23.9 100 100 NNE 5 7 29.92 1013 7 11 0.00 0.00
7:53 am 07:53 Sunny 78 25.6 76 24.4 93 93 N 5 7 29.94 1014 8 13 0.00 0.00
8:53 am 08:53 Mostly Sunny 82 27.8 76 24.4 82 82 NNW 3 6 29.96 1014 10 16 0.00 0.00
9:53 am 09:53 Sunny 87 30.6 76 24.4 70 70 Calm 29.95 1014 10 16 0.00 0.00
10:53 am 10:53 Mostly Cloudy 88 31.1 76 24.4 68 68 E 5 7 29.95 1014 10 16 0.00 0.00
11:53 am 11:53 Mostly Cloudy 89 31.7 76 24.4 65 65 Calm 29.96 1014 10 16 0.00 0.00
12:53 pm 12:53 Sunny 92 33.3 76 24.4 60 60 Calm 29.94 1014 10 16 0.00 0.00
1:53 pm 13:53 Partly Cloudy 93 33.9 76 24.4 58 58 VRB 3 6 29.93 1014 10 16 0.00 0.00
2:53 pm 14:53 Mostly Sunny 94 34.4 76 24.4 56 56 VRB 5 7 29.90 1013 10 16 0.00 0.00
3:53 pm 15:53 Sunny 94 34.4 75 23.9 54 54 N 6 9 29.88 1012 10 16 0.00 0.00
4:53 pm 16:53 Sunny 94 34.4 76 24.4 56 56 NNE 7 11 29.87 1012 10 16 0.00 0.00
5:53 pm 17:53 Sunny 94 34.4 76 24.4 56 56 N 3 6 29.88 1012 10 16 0.00 0.00
6:53 pm 18:53 Sunny 89 31.7 77 25 68 68 NE 3 6 29.88 1012 10 16 0.00 0.00
7:53 pm 19:53 Sunny 87 30.6 79 26.1 77 77 NNE 3 6 29.88 1012 9 14 0.00 0.00
8:53 pm 20:53 Clear 85 29.4 78 25.6 80 80 Calm 29.90 1013 10 16 0.00 0.00
9:53 pm 21:53 Clear 82 27.8 79 26.1 90 90 Calm 29.93 1014 8 13 0.00 0.00
10:53 pm 22:53 Mostly Clear 81 27.2 79 26.1 94 94 Calm 29.94 1014 8 13 0.00 0.00
11:53 pm 23:53 Clear 81 27.2 79 26.1 94 94 Calm 29.93 1014 8 13 0.00 0.00

Powered by AerisWeather